Darstellungsparameter: Aktuell verwendete Einstellungen:
Skalierung der Graphiken ... ?
xyx+y,   Skalierungsfaktor:      Skalierung: Modus: x, Faktor: 1
Darstellungszeitraum ... ?
Vom - - bis: - -   Zeitraum: 03.09.2009 - 07.09.2009
Min/Max/Avg-Anzeige ... ?
Zeige MMA aktuell
Zeige MMA Monat
Zeige MMA alles
Zeige --A aktuell
Zeige --A Monat
Zeige --A alles
Keine MMA-Anzeige
MMA:
Keine MMA-Graphiken
MMA-Basis: 03.09.2009 - 07.09.2009
Quicknavigation für Darstellung... ?
Tage:      1T, 2T, 3T, 5T -1T -2T -3T -5T +1T +2T +3T +5T
Wochen: 1W, 2W, 3W -1W -2W -3W +1W +2W +3W
Monate: 1M, 3M, 6M -1M -3M -6M +1M +3M +6M
Jahre:    1J, 3J, 5J, 10J -1J -3J -5J -10J +1J +3J +5J +10J
Nutze für die Darstellung ... ?
Originaldaten oder Mittelwerte auf ...
Stundenbasis Tagesbasis Wochenbasis
Monatsbasis Jahresbasis      Datenbasis: Original-Daten
Darstellen als:
Statistik (Auto) Statistik J:M      Darstellung:
Zur Graphik,    zurück zur Übersicht aller Sensoren.
 
Tabellarische Datenbersicht: ?
 
Sensor: Nr:Datum:Temp:Abs-Feuchte:Windchill:Wind:
Aussen-T/F 1 03-09-2009 00:11:03 16.2 C 9.65 g/m*3 16.2 C 0 km/h
2 03-09-2009 00:23:03 16.4 C 9.21 g/m*3 16.4 C 0 km/h
3 03-09-2009 00:35:03 16.6 C 9.04 g/m*3 16.6 C 0 km/h
4 03-09-2009 00:47:03 16.7 C 8.95 g/m*3 16.7 C 0 km/h
5 03-09-2009 00:59:03 16.8 C 9.15 g/m*3 16.8 C 0 km/h
6 03-09-2009 01:11:03 16.6 C 9.04 g/m*3 16.6 C 0 km/h
7 03-09-2009 01:23:03 16.5 C 8.99 g/m*3 16.5 C 0 km/h
8 03-09-2009 01:35:03 16.6 C 9.04 g/m*3 16.6 C 0 km/h
9 03-09-2009 01:47:03 16.5 C 8.99 g/m*3 16.5 C 0 km/h
10 03-09-2009 01:59:03 16.5 C 8.99 g/m*3 16.5 C 0 km/h
11 03-09-2009 02:11:03 16.4 C 9.07 g/m*3 16.4 C 0 km/h
12 03-09-2009 02:23:03 16.5 C 8.99 g/m*3 16.5 C 0 km/h
13 03-09-2009 02:35:04 15.6 C 9.44 g/m*3 15.6 C 0 km/h
14 03-09-2009 02:47:04 15 C 9.75 g/m*3 15 C 0 km/h
15 03-09-2009 02:59:04 15 C 10 g/m*3 15 C 0 km/h
16 03-09-2009 03:11:04 15 C 10.26 g/m*3 15 C 0 km/h
17 03-09-2009 03:23:04 14.9 C 10.58 g/m*3 14.9 C 0 km/h
18 03-09-2009 03:35:04 15 C 10.51 g/m*3 15 C 0 km/h
19 03-09-2009 03:47:04 15.1 C 10.58 g/m*3 15.1 C 0 km/h
20 03-09-2009 03:59:04 15.1 C 10.58 g/m*3 15.1 C 0 km/h
21 03-09-2009 04:11:04 15.3 C 10.45 g/m*3 15.3 C 0 km/h
22 03-09-2009 04:23:04 15.3 C 10.45 g/m*3 15.3 C 0 km/h
23 03-09-2009 04:35:04 15.3 C 10.45 g/m*3 15.3 C 0 km/h
24 03-09-2009 04:47:04 15.4 C 10.51 g/m*3 15.4 C 0 km/h
25 03-09-2009 04:59:04 15 C 10.39 g/m*3 15 C 0 km/h
Sensor: Nr:Datum:Temp:Abs-Feuchte:Windchill:Wind:
Aussen-T/F 26 03-09-2009 05:11:04 15 C 10.64 g/m*3 15 C 0 km/h
27 03-09-2009 05:23:04 14.9 C 10.83 g/m*3 14.9 C 0 km/h
28 03-09-2009 05:35:04 14.8 C 10.89 g/m*3 14.8 C 0 km/h
29 03-09-2009 05:47:04 14.8 C 10.89 g/m*3 14.8 C 0 km/h
30 03-09-2009 05:59:04 14.7 C 10.83 g/m*3 14.7 C 0 km/h
31 03-09-2009 06:11:04 14.7 C 11.08 g/m*3 14.7 C 0 km/h
32 03-09-2009 06:23:05 14.7 C 11.08 g/m*3 14.7 C 0 km/h
33 03-09-2009 06:35:05 15 C 11.16 g/m*3 15 C 0 km/h
34 03-09-2009 06:47:05 15 C 11.16 g/m*3 15 C 0 km/h
35 03-09-2009 06:59:05 14.8 C 11.15 g/m*3 14.8 C 0 km/h
36 03-09-2009 07:11:02 14.8 C 11.15 g/m*3 14.8 C 0 km/h
37 03-09-2009 07:23:03 14.7 C 11.21 g/m*3 14.7 C 0 km/h
38 03-09-2009 07:35:02 14.9 C 11.47 g/m*3 14.9 C 0 km/h
39 03-09-2009 07:47:02 15.2 C 11.68 g/m*3 15.2 C 0 km/h
40 03-09-2009 07:59:02 15.4 C 11.69 g/m*3 15.4 C 0 km/h
41 03-09-2009 08:11:02 15.6 C 11.7 g/m*3 15.6 C 0 km/h
42 03-09-2009 08:23:02 15.7 C 11.64 g/m*3 15.7 C 0 km/h
43 03-09-2009 08:35:03 15.8 C 11.44 g/m*3 15.8 C 0 km/h
44 03-09-2009 08:47:02 15.8 C 11.44 g/m*3 15.8 C 0 km/h
45 03-09-2009 08:59:03 15.7 C 11.51 g/m*3 15.7 C 0 km/h
46 03-09-2009 09:11:01 16 C 11.31 g/m*3 16 C 0 km/h
47 03-09-2009 09:23:01 16.4 C 11.17 g/m*3 16.4 C 0 km/h
48 03-09-2009 09:35:02 16.8 C 11.15 g/m*3 16.8 C 0 km/h
49 03-09-2009 09:47:02 17.7 C 10.71 g/m*3 17.7 C 0 km/h
50 03-09-2009 09:59:02 17.8 C 10.62 g/m*3 17.8 C 0 km/h
Sensor: Nr:Datum:Temp:Abs-Feuchte:Windchill:Wind:
Aussen-T/F 51 03-09-2009 10:11:02 17.9 C 10.38 g/m*3 17.9 C 0 km/h
52 03-09-2009 10:23:01 18.3 C 10.01 g/m*3 18.3 C 0 km/h
53 03-09-2009 10:35:02 18.6 C 10.03 g/m*3 18.6 C 0 km/h
54 03-09-2009 10:47:01 17 C 10.56 g/m*3 17 C 0 km/h
55 03-09-2009 10:59:01 17.2 C 10.98 g/m*3 17.2 C 0 km/h
56 03-09-2009 11:11:02 17.7 C 10.11 g/m*3 17.7 C 0 km/h
57 03-09-2009 11:23:02 18 C 9.37 g/m*3 18 C 0 km/h
58 03-09-2009 11:35:02 18.2 C 8.7 g/m*3 18.2 C 0 km/h
59 03-09-2009 11:47:01 18.8 C 8.86 g/m*3 18.8 C 0 km/h
60 03-09-2009 11:59:01 18.5 C 8.39 g/m*3 18.5 C 0 km/h
61 03-09-2009 12:11:02 18.7 C 7.68 g/m*3 18.7 C 0 km/h
62 03-09-2009 12:23:02 19.2 C 7.26 g/m*3 19.2 C 0 km/h
63 03-09-2009 12:35:02 19.4 C 6.84 g/m*3 19.4 C 0 km/h
64 03-09-2009 12:47:02 19.3 C 6.47 g/m*3 19.3 C 0 km/h
65 03-09-2009 12:59:02 19.5 C 6.38 g/m*3 19.5 C 0 km/h
66 03-09-2009 13:11:01 19.4 C 6.17 g/m*3 19.4 C 0 km/h
67 03-09-2009 13:23:02 19.7 C 6.62 g/m*3 19.7 C 0 km/h
68 03-09-2009 13:35:01 19.5 C 6.21 g/m*3 19.5 C 0 km/h
69 03-09-2009 13:47:02 19.9 C 6.36 g/m*3 19.9 C 0 km/h
70 03-09-2009 13:59:02 20.6 C 6.44 g/m*3 20.6 C 0 km/h
71 03-09-2009 14:11:01 20.8 C 6.34 g/m*3 20.8 C 0 km/h
72 03-09-2009 14:23:02 20.9 C 6.37 g/m*3 20.9 C 0 km/h
73 03-09-2009 14:35:01 21.4 C 6.19 g/m*3 21.4 C 0 km/h
74 03-09-2009 14:47:02 21.3 C 5.96 g/m*3 21.3 C 0 km/h
75 03-09-2009 14:59:03 20.8 C 5.98 g/m*3 20.8 C 0 km/h
Sensor: Nr:Datum:Temp:Abs-Feuchte:Windchill:Wind:
Aussen-T/F 76 03-09-2009 15:11:02 21.8 C 5.76 g/m*3 21.8 C 0 km/h
77 03-09-2009 15:23:02 22.5 C 5.79 g/m*3 22.5 C 0 km/h
78 03-09-2009 15:35:02 22.5 C 5.19 g/m*3 22.5 C 0 km/h
79 03-09-2009 15:47:02 21.7 C 4.96 g/m*3 21.7 C 0 km/h
80 03-09-2009 15:59:02 21.8 C 5.37 g/m*3 21.8 C 0 km/h
81 03-09-2009 16:11:02 20.8 C 5.43 g/m*3 20.8 C 0 km/h
82 03-09-2009 16:23:01 20.3 C 5.63 g/m*3 20.3 C 0 km/h
83 03-09-2009 16:35:02 20.2 C 5.6 g/m*3 20.2 C 0 km/h
84 03-09-2009 16:47:02 20.1 C 5.56 g/m*3 20.1 C 0 km/h
85 03-09-2009 16:59:02 19.9 C 5.84 g/m*3 19.9 C 0 km/h
86 03-09-2009 17:11:02 19.7 C 5.77 g/m*3 19.7 C 0 km/h
87 03-09-2009 17:23:02 19.6 C 5.91 g/m*3 19.6 C 0 km/h
88 03-09-2009 17:35:02 19.6 C 5.91 g/m*3 19.6 C 0 km/h
89 03-09-2009 17:47:02 19.5 C 5.87 g/m*3 19.5 C 0 km/h
90 03-09-2009 17:59:02 19.4 C 5.84 g/m*3 19.4 C 0 km/h
91 03-09-2009 18:11:02 18.5 C 6.65 g/m*3 18.5 C 0 km/h
92 03-09-2009 18:23:02 17.6 C 7.5 g/m*3 17.6 C 0 km/h
93 03-09-2009 18:35:02 18.1 C 7.42 g/m*3 18.1 C 0 km/h
94 03-09-2009 18:47:02 18.3 C 7.19 g/m*3 18.3 C 0 km/h
95 03-09-2009 18:59:02 18.2 C 7.15 g/m*3 18.2 C 0 km/h
96 03-09-2009 19:11:02 18.4 C 7.39 g/m*3 18.4 C 0 km/h
97 03-09-2009 19:23:02 18 C 7.22 g/m*3 18 C 0 km/h
98 03-09-2009 19:35:02 17.7 C 7.09 g/m*3 17.7 C 0 km/h
99 03-09-2009 19:47:02 17.7 C 7.09 g/m*3 17.7 C 0 km/h
100 03-09-2009 19:59:02 17.5 C 7.01 g/m*3 17.5 C 0 km/h
Sensor: Nr:Datum:Temp:Abs-Feuchte:Windchill:Wind:
Aussen-T/F 101 03-09-2009 20:11:02 17.5 C 7.01 g/m*3 17.5 C 0 km/h
102 03-09-2009 20:23:03 17.5 C 7.01 g/m*3 17.5 C 0 km/h
103 03-09-2009 20:35:02 17.5 C 7.01 g/m*3 17.5 C 0 km/h
104 03-09-2009 20:47:03 17.3 C 6.78 g/m*3 17.3 C 0 km/h
105 03-09-2009 20:59:03 17.1 C 6.7 g/m*3 17.1 C 0 km/h
106 03-09-2009 21:11:02 17.1 C 6.55 g/m*3 17.1 C 0 km/h
107 03-09-2009 21:23:02 17.1 C 6.55 g/m*3 17.1 C 0 km/h
108 03-09-2009 21:35:02 17 C 6.51 g/m*3 17 C 0 km/h
109 03-09-2009 21:48:04 17 C 6.51 g/m*3 17 C 0 km/h
110 03-09-2009 22:00:04 16.6 C 6.5 g/m*3 16.6 C 0 km/h
111 03-09-2009 22:12:04 16.4 C 6.7 g/m*3 16.4 C 0 km/h
112 03-09-2009 22:24:04 16.2 C 6.62 g/m*3 16.2 C 0 km/h
113 03-09-2009 22:36:04 16.2 C 6.62 g/m*3 16.2 C 0 km/h
114 03-09-2009 22:48:04 16.3 C 6.52 g/m*3 16.3 C 0 km/h
115 03-09-2009 23:00:04 16.3 C 6.66 g/m*3 16.3 C 0 km/h
116 03-09-2009 23:12:04 16.1 C 6.58 g/m*3 16.1 C 0 km/h
117 03-09-2009 23:24:04 16.2 C 6.76 g/m*3 16.2 C 0 km/h
118 03-09-2009 23:36:04 16.2 C 6.9 g/m*3 16.2 C 0 km/h
119 03-09-2009 23:48:05 16.2 C 6.9 g/m*3 16.2 C 0 km/h
120 04-09-2009 00:00:05 16.1 C 6.72 g/m*3 16.1 C 0 km/h
121 04-09-2009 00:12:05 16.1 C 6.72 g/m*3 16.1 C 0 km/h
122 04-09-2009 00:24:05 16.1 C 6.58 g/m*3 16.1 C 0 km/h
123 04-09-2009 00:36:05 16 C 6.54 g/m*3 16 C 0 km/h
124 04-09-2009 00:48:05 15.9 C 6.64 g/m*3 15.9 C 0 km/h
125 04-09-2009 01:00:05 15.8 C 6.73 g/m*3 15.8 C 0 km/h
Sensor: Nr:Datum:Temp:Abs-Feuchte:Windchill:Wind:
Aussen-T/F 126 04-09-2009 01:12:05 15.7 C 6.82 g/m*3 15.7 C 0 km/h
127 04-09-2009 01:24:05 15.6 C 6.92 g/m*3 15.6 C 0 km/h
128 04-09-2009 01:36:05 15.6 C 7.05 g/m*3 15.6 C 0 km/h
129 04-09-2009 01:48:05 15.6 C 7.18 g/m*3 15.6 C 0 km/h
130 04-09-2009 02:00:05 15.5 C 7.27 g/m*3 15.5 C 0 km/h
131 04-09-2009 02:12:05 15.4 C 7.36 g/m*3 15.4 C 0 km/h
132 04-09-2009 02:24:05 15.2 C 7.53 g/m*3 15.2 C 0 km/h
133 04-09-2009 02:36:05 15.1 C 7.48 g/m*3 15.1 C 0 km/h
134 04-09-2009 02:48:05 15.1 C 7.61 g/m*3 15.1 C 0 km/h
135 04-09-2009 03:00:05 15.1 C 7.61 g/m*3 15.1 C 0 km/h
136 04-09-2009 03:12:05 15.1 C 7.61 g/m*3 15.1 C 0 km/h
137 04-09-2009 03:24:05 15.1 C 7.61 g/m*3 15.1 C 0 km/h
138 04-09-2009 03:36:05 15 C 7.69 g/m*3 15 C 0 km/h
139 04-09-2009 03:48:06 15.1 C 7.87 g/m*3 15.1 C 0 km/h
140 04-09-2009 04:00:06 15 C 7.82 g/m*3 15 C 0 km/h
141 04-09-2009 04:12:06 15 C 7.82 g/m*3 15 C 0 km/h
142 04-09-2009 04:24:06 15 C 7.95 g/m*3 15 C 0 km/h
143 04-09-2009 04:36:06 15 C 7.95 g/m*3 15 C 0 km/h
144 04-09-2009 04:48:06 14.9 C 7.9 g/m*3 14.9 C 0 km/h
145 04-09-2009 05:00:06 14.8 C 7.73 g/m*3 14.8 C 0 km/h
146 04-09-2009 05:12:06 14.8 C 7.73 g/m*3 14.8 C 0 km/h
147 04-09-2009 05:24:06 14.6 C 7.76 g/m*3 14.6 C 0 km/h
148 04-09-2009 05:36:06 14.5 C 7.71 g/m*3 14.5 C 0 km/h
149 04-09-2009 05:48:06 14.3 C 7.74 g/m*3 14.3 C 0 km/h
150 04-09-2009 06:00:06 14 C 7.72 g/m*3 14 C 0 km/h
Sensor: Nr:Datum:Temp:Abs-Feuchte:Windchill:Wind:
Aussen-T/F 151 04-09-2009 06:12:06 13.8 C 7.63 g/m*3 13.8 C 0 km/h
152 04-09-2009 06:24:06 13.7 C 7.46 g/m*3 13.7 C 0 km/h
153 04-09-2009 06:36:04 13.6 C 7.53 g/m*3 13.6 C 0 km/h
154 04-09-2009 06:48:02 13.7 C 7.58 g/m*3 13.7 C 0 km/h
155 04-09-2009 07:00:02 13.7 C 7.58 g/m*3 13.7 C 0 km/h
156 04-09-2009 07:12:03 13.8 C 7.63 g/m*3 13.8 C 0 km/h
157 04-09-2009 07:24:02 13.7 C 7.58 g/m*3 13.7 C 0 km/h
158 04-09-2009 07:36:01 13.4 C 7.44 g/m*3 13.4 C 0 km/h
159 04-09-2009 07:48:02 13.3 C 7.39 g/m*3 13.3 C 0 km/h
160 04-09-2009 08:00:02 13.2 C 7.35 g/m*3 13.2 C 0 km/h
161 04-09-2009 08:12:01 13.3 C 7.39 g/m*3 13.3 C 0 km/h
162 04-09-2009 08:24:02 13.5 C 7.37 g/m*3 13.5 C 0 km/h
163 04-09-2009 08:36:01 13.8 C 7.27 g/m*3 13.8 C 0 km/h
164 04-09-2009 08:48:01 13.9 C 7.31 g/m*3 13.9 C 0 km/h
165 04-09-2009 09:00:01 13.8 C 7.27 g/m*3 13.8 C 0 km/h
166 04-09-2009 09:12:01 13.9 C 7.31 g/m*3 13.9 C 0 km/h
167 04-09-2009 09:24:01 14 C 7.12 g/m*3 14 C 0 km/h
168 04-09-2009 09:36:01 14.2 C 7.2 g/m*3 14.2 C 0 km/h
169 04-09-2009 09:48:02 14.4 C 7.17 g/m*3 14.4 C 0 km/h
170 04-09-2009 10:00:02 14.7 C 6.92 g/m*3 14.7 C 0 km/h
171 04-09-2009 10:12:03 15.2 C 6.88 g/m*3 15.2 C 0 km/h
172 04-09-2009 10:24:02 15.5 C 6.74 g/m*3 15.5 C 0 km/h
173 04-09-2009 10:36:02 16.5 C 6.6 g/m*3 16.5 C 0 km/h
174 04-09-2009 10:48:01 17 C 6.66 g/m*3 17 C 0 km/h
175 04-09-2009 11:00:01 17.2 C 6.74 g/m*3 17.2 C 0 km/h
Sensor: Nr:Datum:Temp:Abs-Feuchte:Windchill:Wind:
Aussen-T/F 176 04-09-2009 11:12:01 17.5 C 6.86 g/m*3 17.5 C 0 km/h
177 04-09-2009 11:24:01 17.7 C 6.79 g/m*3 17.7 C 0 km/h
178 04-09-2009 11:36:01 18 C 6.45 g/m*3 18 C 0 km/h
179 04-09-2009 11:48:01 17.8 C 6.53 g/m*3 17.8 C 0 km/h
180 04-09-2009 12:00:01 17.6 C 6.75 g/m*3 17.6 C 0 km/h
181 04-09-2009 12:12:01 17.7 C 6.79 g/m*3 17.7 C 0 km/h
182 04-09-2009 12:24:02 17.7 C 6.79 g/m*3 17.7 C 0 km/h
183 04-09-2009 12:36:01 17.6 C 6.9 g/m*3 17.6 C 0 km/h
184 04-09-2009 12:48:02 17.3 C 6.78 g/m*3 17.3 C 0 km/h
185 04-09-2009 13:00:02 16.8 C 7.15 g/m*3 16.8 C 0 km/h
186 04-09-2009 13:12:02 16.2 C 7.72 g/m*3 16.2 C 0 km/h
187 04-09-2009 13:24:03 15.6 C 8.51 g/m*3 15.6 C 0 km/h
188 04-09-2009 13:36:02 15.8 C 9.02 g/m*3 15.8 C 0 km/h
189 04-09-2009 13:48:02 15.5 C 8.99 g/m*3 15.5 C 0 km/h
190 04-09-2009 14:00:02 14.3 C 9.21 g/m*3 14.3 C 0 km/h
191 04-09-2009 14:12:02 14.1 C 9.71 g/m*3 14.1 C 0 km/h
192 04-09-2009 14:24:02 14 C 10.01 g/m*3 14 C 0 km/h
193 04-09-2009 14:36:02 13.8 C 10.13 g/m*3 13.8 C 0 km/h
194 04-09-2009 14:48:02 13.8 C 10.37 g/m*3 13.8 C 0 km/h
195 04-09-2009 15:00:02 13.7 C 10.42 g/m*3 13.7 C 0 km/h
196 04-09-2009 15:12:01 13.8 C 10.6 g/m*3 13.8 C 0 km/h
197 04-09-2009 15:24:02 13.8 C 10.72 g/m*3 13.8 C 0 km/h
198 04-09-2009 15:36:02 14 C 10.86 g/m*3 14 C 0 km/h
199 04-09-2009 15:48:01 14.1 C 10.92 g/m*3 14.1 C 0 km/h
200 04-09-2009 16:00:02 14.5 C 11.19 g/m*3 14.5 C 0 km/h
Sensor: Nr:Datum:Temp:Abs-Feuchte:Windchill:Wind:
Aussen-T/F 201 04-09-2009 16:12:01 14.9 C 11.47 g/m*3 14.9 C 0 km/h
202 04-09-2009 16:24:01 15.5 C 11.76 g/m*3 15.5 C 0 km/h
203 04-09-2009 16:36:02 15.8 C 11.04 g/m*3 15.8 C 0 km/h
204 04-09-2009 16:48:02 15.6 C 10.51 g/m*3 15.6 C 0 km/h
205 04-09-2009 17:00:02 16 C 10.63 g/m*3 16 C 0 km/h
206 04-09-2009 17:12:02 15.7 C 10.7 g/m*3 15.7 C 0 km/h
207 04-09-2009 17:24:02 15.1 C 10.19 g/m*3 15.1 C 0 km/h
208 04-09-2009 17:36:02 14.4 C 10.38 g/m*3 14.4 C 0 km/h
209 04-09-2009 17:48:02 14.2 C 10.38 g/m*3 14.2 C 0 km/h
210 04-09-2009 18:00:02 14 C 10.25 g/m*3 14 C 0 km/h
211 04-09-2009 18:12:02 14.2 C 10.5 g/m*3 14.2 C 0 km/h
212 04-09-2009 18:24:02 14.5 C 10.82 g/m*3 14.5 C 0 km/h
213 04-09-2009 18:36:02 14.2 C 10.5 g/m*3 14.2 C 0 km/h
214 04-09-2009 18:48:02 14 C 9.77 g/m*3 14 C 0 km/h
215 04-09-2009 19:00:02 14.1 C 9.95 g/m*3 14.1 C 0 km/h
216 04-09-2009 19:12:03 14.6 C 9.89 g/m*3 14.6 C 0 km/h
217 04-09-2009 19:24:02 15 C 9.1 g/m*3 15 C 0 km/h
218 04-09-2009 19:36:02 14.5 C 8.46 g/m*3 14.5 C 0 km/h
219 04-09-2009 19:48:01 13.9 C 7.79 g/m*3 13.9 C 0 km/h
220 04-09-2009 20:00:01 13.3 C 8.2 g/m*3 13.3 C 0 km/h
221 04-09-2009 20:12:02 12.7 C 8.13 g/m*3 12.7 C 0 km/h
222 04-09-2009 20:24:02 12.3 C 8.25 g/m*3 12.3 C 0 km/h
223 04-09-2009 20:36:01 11.9 C 8.37 g/m*3 11.9 C 0 km/h
224 04-09-2009 20:48:01 12 C 7.99 g/m*3 12 C 0 km/h
225 04-09-2009 21:00:01 12.3 C 7.82 g/m*3 12.3 C 0 km/h
Sensor: Nr:Datum:Temp:Abs-Feuchte:Windchill:Wind:
Aussen-T/F 226 04-09-2009 21:12:01 12.5 C 7.81 g/m*3 12.5 C 0 km/h
227 04-09-2009 21:24:02 12.5 C 7.7 g/m*3 12.5 C 0 km/h
228 04-09-2009 21:36:01 12.4 C 7.76 g/m*3 12.4 C 0 km/h
229 04-09-2009 21:49:02 12.5 C 7.81 g/m*3 12.5 C 0 km/h
230 04-09-2009 22:01:02 12.4 C 7.76 g/m*3 12.4 C 0 km/h
231 04-09-2009 22:13:02 12 C 7.67 g/m*3 12 C 0 km/h
232 04-09-2009 22:25:02 11.8 C 7.89 g/m*3 11.8 C 0 km/h
233 04-09-2009 22:37:02 11.9 C 7.94 g/m*3 11.9 C 0 km/h
234 04-09-2009 22:49:02 11.9 C 8.05 g/m*3 11.9 C 0 km/h
235 04-09-2009 23:01:02 11.9 C 8.05 g/m*3 11.9 C 0 km/h
236 04-09-2009 23:13:02 12.1 C 7.94 g/m*3 12.1 C 0 km/h
237 04-09-2009 23:25:02 12.5 C 7.81 g/m*3 12.5 C 0 km/h
238 04-09-2009 23:37:02 12.4 C 7.54 g/m*3 12.4 C 0 km/h
239 04-09-2009 23:49:02 12.5 C 7.59 g/m*3 12.5 C 0 km/h
240 05-09-2009 00:01:02 12.7 C 7.68 g/m*3 12.7 C 0 km/h
241 05-09-2009 00:13:02 12.8 C 7.73 g/m*3 12.8 C 0 km/h
242 05-09-2009 00:25:03 12.8 C 7.84 g/m*3 12.8 C 0 km/h
243 05-09-2009 00:37:03 12.9 C 7.78 g/m*3 12.9 C 0 km/h
244 05-09-2009 00:49:03 12.7 C 7.79 g/m*3 12.7 C 0 km/h
245 05-09-2009 01:01:03 12.5 C 7.81 g/m*3 12.5 C 0 km/h
246 05-09-2009 01:13:03 12.5 C 7.81 g/m*3 12.5 C 0 km/h
247 05-09-2009 01:25:03 12.5 C 7.7 g/m*3 12.5 C 0 km/h
248 05-09-2009 01:37:03 12.6 C 7.74 g/m*3 12.6 C 0 km/h
249 05-09-2009 01:49:03 12.5 C 7.7 g/m*3 12.5 C 0 km/h
250 05-09-2009 02:01:03 12.5 C 7.7 g/m*3 12.5 C 0 km/h
Sensor: Nr:Datum:Temp:Abs-Feuchte:Windchill:Wind:
Aussen-T/F 251 05-09-2009 02:13:03 12.6 C 7.63 g/m*3 12.6 C 0 km/h
252 05-09-2009 02:25:03 12.5 C 7.7 g/m*3 12.5 C 0 km/h
253 05-09-2009 02:37:03 12.5 C 7.7 g/m*3 12.5 C 0 km/h
254 05-09-2009 02:49:03 12.6 C 7.63 g/m*3 12.6 C 0 km/h
255 05-09-2009 03:01:03 12.6 C 7.74 g/m*3 12.6 C 0 km/h
256 05-09-2009 03:13:03 12.7 C 7.68 g/m*3 12.7 C 0 km/h
257 05-09-2009 03:25:03 12.8 C 7.73 g/m*3 12.8 C 0 km/h
258 05-09-2009 03:37:03 12.7 C 7.79 g/m*3 12.7 C 0 km/h
259 05-09-2009 03:49:03 12.7 C 7.79 g/m*3 12.7 C 0 km/h
260 05-09-2009 04:01:03 12.8 C 7.84 g/m*3 12.8 C 0 km/h
261 05-09-2009 04:13:04 12.8 C 7.73 g/m*3 12.8 C 0 km/h
262 05-09-2009 04:25:04 12.8 C 7.84 g/m*3 12.8 C 0 km/h
263 05-09-2009 04:37:04 12.7 C 7.79 g/m*3 12.7 C 0 km/h
264 05-09-2009 04:49:04 12.7 C 7.79 g/m*3 12.7 C 0 km/h
265 05-09-2009 05:01:04 12.7 C 7.79 g/m*3 12.7 C 0 km/h
266 05-09-2009 05:13:04 12.7 C 7.79 g/m*3 12.7 C 0 km/h
267 05-09-2009 05:25:04 12.6 C 7.85 g/m*3 12.6 C 0 km/h
268 05-09-2009 05:37:04 12.6 C 7.85 g/m*3 12.6 C 0 km/h
269 05-09-2009 05:49:04 12.6 C 7.85 g/m*3 12.6 C 0 km/h
270 05-09-2009 06:01:04 12.7 C 7.79 g/m*3 12.7 C 0 km/h
271 05-09-2009 06:13:04 12.5 C 7.7 g/m*3 12.5 C 0 km/h
272 05-09-2009 06:25:04 12.3 C 7.82 g/m*3 12.3 C 0 km/h
273 05-09-2009 06:37:04 12.4 C 7.87 g/m*3 12.4 C 0 km/h
274 05-09-2009 06:49:04 12.5 C 7.81 g/m*3 12.5 C 0 km/h
275 05-09-2009 07:01:04 12.6 C 7.85 g/m*3 12.6 C 0 km/h
Sensor: Nr:Datum:Temp:Abs-Feuchte:Windchill:Wind:
Aussen-T/F 276 05-09-2009 07:13:04 12.7 C 7.79 g/m*3 12.7 C 0 km/h
277 05-09-2009 07:25:04 12.5 C 7.7 g/m*3 12.5 C 0 km/h
278 05-09-2009 07:37:04 12.5 C 7.81 g/m*3 12.5 C 0 km/h
279 05-09-2009 07:49:04 12.4 C 7.76 g/m*3 12.4 C 0 km/h
280 05-09-2009 08:01:05 12.4 C 7.87 g/m*3 12.4 C 0 km/h
281 05-09-2009 08:13:05 12.6 C 7.97 g/m*3 12.6 C 0 km/h
282 05-09-2009 08:25:05 12.6 C 7.97 g/m*3 12.6 C 0 km/h
283 05-09-2009 08:37:05 13.1 C 7.99 g/m*3 13.1 C 0 km/h
284 05-09-2009 08:49:05 13.2 C 7.92 g/m*3 13.2 C 0 km/h
285 05-09-2009 09:01:02 13.6 C 8.12 g/m*3 13.6 C 0 km/h
286 05-09-2009 09:13:02 14.1 C 8.01 g/m*3 14.1 C 0 km/h
287 05-09-2009 09:25:01 14.7 C 7.93 g/m*3 14.7 C 0 km/h
288 05-09-2009 09:37:02 14.7 C 7.81 g/m*3 14.7 C 0 km/h
289 05-09-2009 09:49:02 15.1 C 7.87 g/m*3 15.1 C 0 km/h
290 05-09-2009 10:01:02 15.4 C 8.01 g/m*3 15.4 C 0 km/h
291 05-09-2009 10:13:02 15.1 C 7.74 g/m*3 15.1 C 0 km/h
292 05-09-2009 10:25:02 15.2 C 7.79 g/m*3 15.2 C 0 km/h
293 05-09-2009 10:37:02 15.7 C 7.89 g/m*3 15.7 C 0 km/h
294 05-09-2009 10:49:01 16.3 C 7.63 g/m*3 16.3 C 0 km/h
295 05-09-2009 11:01:02 16.9 C 7.62 g/m*3 16.9 C 0 km/h
296 05-09-2009 11:13:02 17.5 C 7.45 g/m*3 17.5 C 0 km/h
297 05-09-2009 11:25:01 17.3 C 7.51 g/m*3 17.3 C 0 km/h
298 05-09-2009 11:37:01 16.8 C 7.58 g/m*3 16.8 C 0 km/h
299 05-09-2009 11:49:02 16.8 C 7.43 g/m*3 16.8 C 0 km/h
300 05-09-2009 12:01:02 17.3 C 6.92 g/m*3 17.3 C 0 km/h
Sensor: Nr:Datum:Temp:Abs-Feuchte:Windchill:Wind:
Aussen-T/F 301 05-09-2009 12:13:02 17.7 C 6.64 g/m*3 17.7 C 0 km/h
302 05-09-2009 12:25:02 17.7 C 6.49 g/m*3 17.7 C 0 km/h
303 05-09-2009 12:37:02 17.7 C 6.34 g/m*3 17.7 C 0 km/h
304 05-09-2009 12:49:02 18 C 6.3 g/m*3 18 C 0 km/h
305 05-09-2009 13:01:02 18.2 C 6.37 g/m*3 18.2 C 0 km/h
306 05-09-2009 13:13:03 18.4 C 6.61 g/m*3 18.4 C 0 km/h
307 05-09-2009 13:25:02 18.2 C 6.22 g/m*3 18.2 C 0 km/h
308 05-09-2009 13:37:02 18 C 5.99 g/m*3 18 C 0 km/h
309 05-09-2009 13:49:01 18.1 C 6.33 g/m*3 18.1 C 0 km/h
310 05-09-2009 14:01:01 18 C 6.3 g/m*3 18 C 0 km/h
311 05-09-2009 14:13:01 18.6 C 5.89 g/m*3 18.6 C 0 km/h
312 05-09-2009 14:25:01 19.9 C 6.01 g/m*3 19.9 C 0 km/h
313 05-09-2009 14:37:01 20.2 C 5.94 g/m*3 20.2 C 0 km/h
314 05-09-2009 14:49:02 20.3 C 5.28 g/m*3 20.3 C 0 km/h
315 05-09-2009 15:01:02 21 C 5.31 g/m*3 21 C 0 km/h
316 05-09-2009 15:13:02 21.8 C 5.18 g/m*3 21.8 C 0 km/h
317 05-09-2009 15:25:03 21 C 4.95 g/m*3 21 C 0 km/h
318 05-09-2009 15:37:02 22.1 C 5.08 g/m*3 22.1 C 0 km/h
319 05-09-2009 15:49:03 21.8 C 5.18 g/m*3 21.8 C 0 km/h
320 05-09-2009 16:01:02 20 C 5.88 g/m*3 20 C 0 km/h
321 05-09-2009 16:13:02 18.5 C 6.8 g/m*3 18.5 C 0 km/h
322 05-09-2009 16:25:02 16.8 C 7.15 g/m*3 16.8 C 0 km/h
323 05-09-2009 16:37:02 16.9 C 7.48 g/m*3 16.9 C 0 km/h
324 05-09-2009 16:49:02 17.4 C 6.97 g/m*3 17.4 C 0 km/h
325 05-09-2009 17:01:02 17.4 C 6.82 g/m*3 17.4 C 0 km/h
Sensor: Nr:Datum:Temp:Abs-Feuchte:Windchill:Wind:
Aussen-T/F 326 05-09-2009 17:13:02 16.8 C 6.86 g/m*3 16.8 C 0 km/h
327 05-09-2009 17:25:02 16.9 C 6.9 g/m*3 16.9 C 0 km/h
328 05-09-2009 17:37:02 18.5 C 6.49 g/m*3 18.5 C 0 km/h
329 05-09-2009 17:49:02 19.5 C 6.21 g/m*3 19.5 C 0 km/h
330 05-09-2009 18:01:01 18.7 C 6.24 g/m*3 18.7 C 0 km/h
331 05-09-2009 18:13:01 17.9 C 6.57 g/m*3 17.9 C 0 km/h
332 05-09-2009 18:25:02 17.9 C 6.26 g/m*3 17.9 C 0 km/h
333 05-09-2009 18:37:02 18.6 C 5.89 g/m*3 18.6 C 0 km/h
334 05-09-2009 18:49:01 18.3 C 6.1 g/m*3 18.3 C 0 km/h
335 05-09-2009 19:01:02 17.8 C 6.53 g/m*3 17.8 C 0 km/h
336 05-09-2009 19:13:02 17.1 C 6.84 g/m*3 17.1 C 0 km/h
337 05-09-2009 19:25:01 17.3 C 7.22 g/m*3 17.3 C 0 km/h
338 05-09-2009 19:37:02 17.3 C 7.37 g/m*3 17.3 C 0 km/h
339 05-09-2009 19:49:02 16.4 C 7.68 g/m*3 16.4 C 0 km/h
340 05-09-2009 20:01:02 15.8 C 7.94 g/m*3 15.8 C 0 km/h
341 05-09-2009 20:13:02 15.3 C 7.84 g/m*3 15.3 C 0 km/h
342 05-09-2009 20:25:02 14.8 C 7.98 g/m*3 14.8 C 0 km/h
343 05-09-2009 20:37:02 14.6 C 7.88 g/m*3 14.6 C 0 km/h
344 05-09-2009 20:49:02 14 C 7.96 g/m*3 14 C 0 km/h
345 05-09-2009 21:01:02 13.9 C 8.03 g/m*3 13.9 C 0 km/h
346 05-09-2009 21:13:02 13.8 C 8.22 g/m*3 13.8 C 0 km/h
347 05-09-2009 21:25:02 13.7 C 8.17 g/m*3 13.7 C 0 km/h
348 05-09-2009 21:37:02 13.7 C 8.29 g/m*3 13.7 C 0 km/h
349 05-09-2009 21:49:02 13.5 C 8.42 g/m*3 13.5 C 0 km/h
350 05-09-2009 22:01:02 13.2 C 8.38 g/m*3 13.2 C 0 km/h
Sensor: Nr:Datum:Temp:Abs-Feuchte:Windchill:Wind:
Aussen-T/F 351 05-09-2009 22:13:02 13.1 C 8.44 g/m*3 13.1 C 0 km/h
352 05-09-2009 22:25:02 12.8 C 8.4 g/m*3 12.8 C 0 km/h
353 05-09-2009 22:37:02 12.8 C 8.29 g/m*3 12.8 C 0 km/h
354 05-09-2009 22:49:02 12.7 C 8.24 g/m*3 12.7 C 0 km/h
355 05-09-2009 23:01:01 12.6 C 8.3 g/m*3 12.6 C 0 km/h
356 05-09-2009 23:13:01 12.5 C 8.14 g/m*3 12.5 C 0 km/h
357 05-09-2009 23:25:02 12.3 C 8.04 g/m*3 12.3 C 0 km/h
358 05-09-2009 23:37:02 12.2 C 8.2 g/m*3 12.2 C 0 km/h
359 05-09-2009 23:49:01 11.8 C 8.1 g/m*3 11.8 C 0 km/h
360 06-09-2009 00:01:02 11.7 C 8.26 g/m*3 11.7 C 0 km/h
361 06-09-2009 00:13:02 11.6 C 8.32 g/m*3 11.6 C 0 km/h
362 06-09-2009 00:25:01 11.4 C 8.42 g/m*3 11.4 C 0 km/h
363 06-09-2009 00:37:02 11.5 C 8.57 g/m*3 11.5 C 0 km/h
364 06-09-2009 00:49:02 11.3 C 8.47 g/m*3 11.3 C 0 km/h
365 06-09-2009 01:01:02 11.2 C 8.41 g/m*3 11.2 C 0 km/h
366 06-09-2009 01:13:02 11 C 8.41 g/m*3 11 C 0 km/h
367 06-09-2009 01:25:01 10.9 C 8.36 g/m*3 10.9 C 0 km/h
368 06-09-2009 01:37:02 10.8 C 8.4 g/m*3 10.8 C 0 km/h
369 06-09-2009 01:49:02 10.8 C 8.4 g/m*3 10.8 C 0 km/h
370 06-09-2009 02:01:02 10.9 C 8.45 g/m*3 10.9 C 0 km/h
371 06-09-2009 02:13:02 10.9 C 8.45 g/m*3 10.9 C 0 km/h
372 06-09-2009 02:25:02 10.8 C 8.4 g/m*3 10.8 C 0 km/h
373 06-09-2009 02:37:02 10.7 C 8.35 g/m*3 10.7 C 0 km/h
374 06-09-2009 02:50:04 10.6 C 8.39 g/m*3 10.6 C 0 km/h
375 06-09-2009 03:02:04 10.4 C 8.29 g/m*3 10.4 C 0 km/h
Sensor: Nr:Datum:Temp:Abs-Feuchte:Windchill:Wind:
Aussen-T/F 376 06-09-2009 03:14:04 10.3 C 8.33 g/m*3 10.3 C 0 km/h
377 06-09-2009 03:26:04 10.2 C 8.37 g/m*3 10.2 C 0 km/h
378 06-09-2009 03:38:02 10.1 C 8.32 g/m*3 10.1 C 0 km/h
379 06-09-2009 03:50:02 10.1 C 8.32 g/m*3 10.1 C 0 km/h
380 06-09-2009 04:02:01 9.9 C 8.4 g/m*3 9.9 C 0 km/h
381 06-09-2009 04:14:01 10 C 8.36 g/m*3 10 C 0 km/h
382 06-09-2009 04:26:01 9.9 C 8.5 g/m*3 9.9 C 0 km/h
383 06-09-2009 04:38:02 9.7 C 8.39 g/m*3 9.7 C 0 km/h
384 06-09-2009 04:50:02 10 C 8.46 g/m*3 10 C 0 km/h
385 06-09-2009 05:02:02 9.7 C 8.48 g/m*3 9.7 C 0 km/h
386 06-09-2009 05:14:02 9.5 C 8.37 g/m*3 9.5 C 0 km/h
387 06-09-2009 05:26:02 9.5 C 8.37 g/m*3 9.5 C 0 km/h
388 06-09-2009 05:38:02 9.4 C 8.32 g/m*3 9.4 C 0 km/h
389 06-09-2009 05:50:01 9.4 C 8.32 g/m*3 9.4 C 0 km/h
390 06-09-2009 06:02:02 9.5 C 8.37 g/m*3 9.5 C 0 km/h
391 06-09-2009 06:14:02 9.5 C 8.47 g/m*3 9.5 C 0 km/h
392 06-09-2009 06:26:01 9.3 C 8.36 g/m*3 9.3 C 0 km/h
393 06-09-2009 06:38:01 9.3 C 8.36 g/m*3 9.3 C 0 km/h
394 06-09-2009 06:50:01 9.2 C 8.3 g/m*3 9.2 C 0 km/h
395 06-09-2009 07:02:02 9.2 C 8.3 g/m*3 9.2 C 0 km/h
396 06-09-2009 07:14:02 9.1 C 8.25 g/m*3 9.1 C 0 km/h
397 06-09-2009 07:26:01 9.1 C 8.25 g/m*3 9.1 C 0 km/h
398 06-09-2009 07:38:01 9.2 C 8.3 g/m*3 9.2 C 0 km/h
399 06-09-2009 07:50:01 9.3 C 8.36 g/m*3 9.3 C 0 km/h
400 06-09-2009 08:02:02 9.4 C 8.41 g/m*3 9.4 C 0 km/h
Sensor: Nr:Datum:Temp:Abs-Feuchte:Windchill:Wind:
Aussen-T/F 401 06-09-2009 08:14:02 9.6 C 8.52 g/m*3 9.6 C 0 km/h
402 06-09-2009 08:26:01 10.2 C 8.76 g/m*3 10.2 C 0 km/h
403 06-09-2009 08:38:01 10.7 C 9.04 g/m*3 10.7 C 0 km/h
404 06-09-2009 08:50:01 11.1 C 9.27 g/m*3 11.1 C 0 km/h
405 06-09-2009 09:02:01 11.4 C 9.44 g/m*3 11.4 C 0 km/h
406 06-09-2009 09:14:01 11.8 C 9.47 g/m*3 11.8 C 0 km/h
407 06-09-2009 09:26:02 11.8 C 9.05 g/m*3 11.8 C 0 km/h
408 06-09-2009 09:38:01 12.3 C 8.9 g/m*3 12.3 C 0 km/h
409 06-09-2009 09:50:02 12.4 C 8.63 g/m*3 12.4 C 0 km/h
410 06-09-2009 10:02:02 12.7 C 8.57 g/m*3 12.7 C 0 km/h
411 06-09-2009 10:14:02 12.9 C 8.57 g/m*3 12.9 C 0 km/h
412 06-09-2009 10:26:02 13.1 C 8.44 g/m*3 13.1 C 0 km/h
413 06-09-2009 10:38:01 13.4 C 8.49 g/m*3 13.4 C 0 km/h
414 06-09-2009 10:50:02 13.8 C 8.58 g/m*3 13.8 C 0 km/h
415 06-09-2009 11:02:01 14.3 C 8.48 g/m*3 14.3 C 0 km/h
416 06-09-2009 11:14:01 14.7 C 8.31 g/m*3 14.7 C 0 km/h
417 06-09-2009 11:26:01 15 C 8.08 g/m*3 15 C 0 km/h
418 06-09-2009 11:38:02 15.3 C 8.1 g/m*3 15.3 C 0 km/h
419 06-09-2009 11:50:02 15.8 C 8.08 g/m*3 15.8 C 0 km/h
420 06-09-2009 12:02:01 16.1 C 7.95 g/m*3 16.1 C 0 km/h
421 06-09-2009 12:14:01 16.6 C 8.05 g/m*3 16.6 C 0 km/h
422 06-09-2009 12:26:02 16.8 C 7.86 g/m*3 16.8 C 0 km/h
423 06-09-2009 12:38:02 17.1 C 7.42 g/m*3 17.1 C 0 km/h
424 06-09-2009 12:50:02 17.5 C 7.6 g/m*3 17.5 C 0 km/h
425 06-09-2009 13:02:03 17.9 C 7.63 g/m*3 17.9 C 0 km/h
Sensor: Nr:Datum:Temp:Abs-Feuchte:Windchill:Wind:
Aussen-T/F 426 06-09-2009 13:14:03 18.3 C 7.04 g/m*3 18.3 C 0 km/h
427 06-09-2009 13:26:02 18.7 C 6.88 g/m*3 18.7 C 0 km/h
428 06-09-2009 13:38:02 19.2 C 6.93 g/m*3 19.2 C 0 km/h
429 06-09-2009 13:50:01 19.7 C 7.13 g/m*3 19.7 C 0 km/h
430 06-09-2009 14:02:03 19.7 C 7.13 g/m*3 19.7 C 0 km/h
431 06-09-2009 14:14:03 20 C 6.91 g/m*3 20 C 0 km/h
432 06-09-2009 14:26:01 20 C 7.09 g/m*3 20 C 0 km/h
433 06-09-2009 14:38:02 20.1 C 7.13 g/m*3 20.1 C 0 km/h
434 06-09-2009 14:50:02 20 C 7.26 g/m*3 20 C 0 km/h
435 06-09-2009 15:02:02 20 C 7.26 g/m*3 20 C 0 km/h
436 06-09-2009 15:14:02 22 C 7.18 g/m*3 22 C 0 km/h
437 06-09-2009 15:26:01 22.5 C 6.99 g/m*3 22.5 C 0 km/h
438 06-09-2009 15:38:02 20.7 C 7.2 g/m*3 20.7 C 0 km/h
439 06-09-2009 15:50:02 20.1 C 6.61 g/m*3 20.1 C 0 km/h
440 06-09-2009 16:02:01 20.3 C 6.51 g/m*3 20.3 C 0 km/h
441 06-09-2009 16:14:01 21 C 6.41 g/m*3 21 C 0 km/h
442 06-09-2009 16:26:02 22 C 6.21 g/m*3 22 C 0 km/h
443 06-09-2009 16:38:01 22.6 C 6.23 g/m*3 22.6 C 0 km/h
444 06-09-2009 16:50:01 23.1 C 5.58 g/m*3 23.1 C 0 km/h
445 06-09-2009 17:02:02 22 C 5.05 g/m*3 22 C 0 km/h
446 06-09-2009 17:14:02 21.6 C 5.12 g/m*3 21.6 C 0 km/h
447 06-09-2009 17:26:01 21.6 C 5.31 g/m*3 21.6 C 0 km/h
448 06-09-2009 17:38:02 22 C 5.24 g/m*3 22 C 0 km/h
449 06-09-2009 17:50:02 22.3 C 5.73 g/m*3 22.3 C 0 km/h
450 06-09-2009 18:02:02 21.7 C 5.72 g/m*3 21.7 C 0 km/h
Sensor: Nr:Datum:Temp:Abs-Feuchte:Windchill:Wind:
Aussen-T/F 451 06-09-2009 18:14:02 21.9 C 5.79 g/m*3 21.9 C 0 km/h
452 06-09-2009 18:26:01 21.3 C 5.78 g/m*3 21.3 C 0 km/h
453 06-09-2009 18:38:02 21.4 C 5.81 g/m*3 21.4 C 0 km/h
454 06-09-2009 18:50:02 21.2 C 5.74 g/m*3 21.2 C 0 km/h
455 06-09-2009 19:02:02 20.8 C 6.34 g/m*3 20.8 C 0 km/h
456 06-09-2009 19:14:02 20.1 C 6.61 g/m*3 20.1 C 0 km/h
457 06-09-2009 19:26:02 19.5 C 6.88 g/m*3 19.5 C 0 km/h
458 06-09-2009 19:38:02 18.8 C 6.93 g/m*3 18.8 C 0 km/h
459 06-09-2009 19:50:02 18 C 7.07 g/m*3 18 C 0 km/h
460 06-09-2009 20:02:02 17.3 C 6.92 g/m*3 17.3 C 0 km/h
461 06-09-2009 20:14:02 16.9 C 7.19 g/m*3 16.9 C 0 km/h
462 06-09-2009 20:26:02 16.7 C 7.25 g/m*3 16.7 C 0 km/h
463 06-09-2009 20:38:02 16.5 C 7.3 g/m*3 16.5 C 0 km/h
464 06-09-2009 20:50:02 16.2 C 7.45 g/m*3 16.2 C 0 km/h
465 06-09-2009 21:02:02 16.1 C 7.4 g/m*3 16.1 C 0 km/h
466 06-09-2009 21:14:02 15.9 C 7.58 g/m*3 15.9 C 0 km/h
467 06-09-2009 21:26:01 15.9 C 7.58 g/m*3 15.9 C 0 km/h
468 06-09-2009 21:39:02 15.7 C 7.63 g/m*3 15.7 C 0 km/h
469 06-09-2009 21:51:02 15.6 C 7.71 g/m*3 15.6 C 0 km/h
470 06-09-2009 22:03:03 15.3 C 7.7 g/m*3 15.3 C 0 km/h
471 06-09-2009 22:15:03 15 C 7.95 g/m*3 15 C 0 km/h
472 06-09-2009 22:27:03 14.7 C 8.06 g/m*3 14.7 C 0 km/h
473 06-09-2009 22:39:03 14.5 C 8.08 g/m*3 14.5 C 0 km/h
474 06-09-2009 22:51:03 14.3 C 8.11 g/m*3 14.3 C 0 km/h
475 06-09-2009 23:03:03 14 C 8.08 g/m*3 14 C 0 km/h
Sensor: Nr:Datum:Temp:Abs-Feuchte:Windchill:Wind:
Aussen-T/F 476 06-09-2009 23:15:03 13.8 C 8.22 g/m*3 13.8 C 0 km/h
477 06-09-2009 23:27:03 13.6 C 8.24 g/m*3 13.6 C 0 km/h
478 06-09-2009 23:39:03 13.4 C 8.14 g/m*3 13.4 C 0 km/h
479 06-09-2009 23:51:03 13.3 C 8.2 g/m*3 13.3 C 0 km/h
480 07-09-2009 00:03:03 13.1 C 8.22 g/m*3 13.1 C 0 km/h
481 07-09-2009 00:15:03 12.9 C 8.23 g/m*3 12.9 C 0 km/h
482 07-09-2009 00:27:03 12.7 C 8.24 g/m*3 12.7 C 0 km/h
483 07-09-2009 00:39:03 12.5 C 8.25 g/m*3 12.5 C 0 km/h
484 07-09-2009 00:51:03 12.3 C 8.25 g/m*3 12.3 C 0 km/h
485 07-09-2009 01:03:03 12.2 C 8.2 g/m*3 12.2 C 0 km/h
486 07-09-2009 01:15:03 12.1 C 8.15 g/m*3 12.1 C 0 km/h
487 07-09-2009 01:27:03 11.8 C 8.1 g/m*3 11.8 C 0 km/h
488 07-09-2009 01:39:03 11.7 C 8.26 g/m*3 11.7 C 0 km/h
489 07-09-2009 01:51:03 11.5 C 8.16 g/m*3 11.5 C 0 km/h
490 07-09-2009 02:03:04 11.5 C 8.26 g/m*3 11.5 C 0 km/h
491 07-09-2009 02:15:04 11.3 C 8.16 g/m*3 11.3 C 0 km/h
492 07-09-2009 02:27:04 11.2 C 8.01 g/m*3 11.2 C 0 km/h
493 07-09-2009 02:39:04 11.1 C 7.96 g/m*3 11.1 C 0 km/h
494 07-09-2009 02:51:04 11 C 8.01 g/m*3 11 C 0 km/h
495 07-09-2009 03:03:04 10.9 C 8.06 g/m*3 10.9 C 0 km/h
496 07-09-2009 03:15:04 10.7 C 8.05 g/m*3 10.7 C 0 km/h
497 07-09-2009 03:27:04 10.7 C 8.15 g/m*3 10.7 C 0 km/h
498 07-09-2009 03:39:04 10.4 C 8 g/m*3 10.4 C 0 km/h
499 07-09-2009 03:51:04 10.5 C 8.15 g/m*3 10.5 C 0 km/h
500 07-09-2009 04:03:04 10.4 C 8 g/m*3 10.4 C 0 km/h
Sensor: Nr:Datum:Temp:Abs-Feuchte:Windchill:Wind:
Aussen-T/F 501 07-09-2009 04:15:04 10.2 C 7.99 g/m*3 10.2 C 0 km/h
502 07-09-2009 04:27:04 10.1 C 7.94 g/m*3 10.1 C 0 km/h
503 07-09-2009 04:39:04 9.9 C 7.94 g/m*3 9.9 C 0 km/h
504 07-09-2009 04:51:04 9.8 C 7.89 g/m*3 9.8 C 0 km/h
505 07-09-2009 05:03:04 9.7 C 7.84 g/m*3 9.7 C 0 km/h
506 07-09-2009 05:15:04 9.7 C 7.84 g/m*3 9.7 C 0 km/h
507 07-09-2009 05:27:04 9.4 C 7.69 g/m*3 9.4 C 0 km/h
508 07-09-2009 05:39:04 9.3 C 7.64 g/m*3 9.3 C 0 km/h
509 07-09-2009 05:51:04 9.1 C 7.54 g/m*3 9.1 C 0 km/h
510 07-09-2009 06:03:04 9.2 C 7.68 g/m*3 9.2 C 0 km/h
511 07-09-2009 06:15:02 9.3 C 7.73 g/m*3 9.3 C 0 km/h
512 07-09-2009 06:27:02 9.6 C 7.97 g/m*3 9.6 C 0 km/h
513 07-09-2009 06:39:03 9.6 C 7.88 g/m*3 9.6 C 0 km/h
514 07-09-2009 06:51:02 9.5 C 7.83 g/m*3 9.5 C 0 km/h
515 07-09-2009 07:03:01 9.6 C 7.88 g/m*3 9.6 C 0 km/h
516 07-09-2009 07:15:02 9.6 C 7.88 g/m*3 9.6 C 0 km/h
517 07-09-2009 07:27:02 9.6 C 7.88 g/m*3 9.6 C 0 km/h
518 07-09-2009 07:39:02 9.3 C 7.82 g/m*3 9.3 C 0 km/h
519 07-09-2009 07:51:01 9.4 C 7.96 g/m*3 9.4 C 0 km/h
520 07-09-2009 08:03:02 9.5 C 8.01 g/m*3 9.5 C 0 km/h
521 07-09-2009 08:15:01 9.5 C 7.92 g/m*3 9.5 C 0 km/h
522 07-09-2009 08:27:01 9.7 C 8.02 g/m*3 9.7 C 0 km/h
523 07-09-2009 08:39:02 9.9 C 8.12 g/m*3 9.9 C 0 km/h
524 07-09-2009 08:51:01 10 C 7.99 g/m*3 10 C 0 km/h
525 07-09-2009 09:03:02 10.3 C 8.04 g/m*3 10.3 C 0 km/h
Sensor: Nr:Datum:Temp:Abs-Feuchte:Windchill:Wind:
Aussen-T/F 526 07-09-2009 09:15:01 10.6 C 8.1 g/m*3 10.6 C 0 km/h
527 07-09-2009 09:27:01 11.3 C 8.36 g/m*3 11.3 C 0 km/h
528 07-09-2009 09:39:02 11.2 C 8.11 g/m*3 11.2 C 0 km/h
529 07-09-2009 09:51:01 11.2 C 8.21 g/m*3 11.2 C 0 km/h
530 07-09-2009 10:03:02 11.7 C 8.58 g/m*3 11.7 C 0 km/h
531 07-09-2009 10:15:02 12.3 C 8.58 g/m*3 12.3 C 0 km/h
532 07-09-2009 10:27:02 13 C 8.73 g/m*3 13 C 0 km/h
533 07-09-2009 10:39:02 13.7 C 8.76 g/m*3 13.7 C 0 km/h
534 07-09-2009 10:51:01 14.3 C 8.85 g/m*3 14.3 C 0 km/h
535 07-09-2009 11:03:02 14.7 C 8.56 g/m*3 14.7 C 0 km/h
536 07-09-2009 11:15:02 15.6 C 8.78 g/m*3 15.6 C 0 km/h
537 07-09-2009 11:27:02 16.3 C 8.88 g/m*3 16.3 C 0 km/h
538 07-09-2009 11:39:01 16.7 C 8.95 g/m*3 16.7 C 0 km/h
539 07-09-2009 11:51:02 17.5 C 8.8 g/m*3 17.5 C 0 km/h
540 07-09-2009 12:03:01 18.5 C 8.7 g/m*3 18.5 C 0 km/h
541 07-09-2009 12:15:02 19.4 C 8.68 g/m*3 19.4 C 0 km/h
542 07-09-2009 12:27:02 19.8 C 8.2 g/m*3 19.8 C 0 km/h
543 07-09-2009 12:39:01 20.6 C 8.41 g/m*3 20.6 C 0 km/h
544 07-09-2009 12:51:02 21.3 C 8.2 g/m*3 21.3 C 0 km/h
545 07-09-2009 13:03:02 21.8 C 8.44 g/m*3 21.8 C 0 km/h
546 07-09-2009 13:15:02 22.2 C 8.05 g/m*3 22.2 C 0 km/h
547 07-09-2009 13:27:02 22.9 C 8.38 g/m*3 22.9 C 0 km/h
548 07-09-2009 13:39:03 23.3 C 8.15 g/m*3 23.3 C 0 km/h
549 07-09-2009 13:51:02 23.9 C 7.79 g/m*3 23.9 C 0 km/h
550 07-09-2009 14:03:02 24.5 C 7.83 g/m*3 24.5 C 0 km/h
Sensor: Nr:Datum:Temp:Abs-Feuchte:Windchill:Wind:
Aussen-T/F 551 07-09-2009 14:15:01 25.4 C 7.77 g/m*3 25.4 C 0 km/h
552 07-09-2009 14:27:01 25.9 C 7.51 g/m*3 25.9 C 0 km/h
553 07-09-2009 14:39:02 26.1 C 7.59 g/m*3 26.1 C 0 km/h
554 07-09-2009 14:51:02 27 C 7.72 g/m*3 27 C 0 km/h
555 07-09-2009 15:03:02 27.8 C 7.26 g/m*3 27.8 C 0 km/h
556 07-09-2009 15:15:01 28.2 C 6.6 g/m*3 28.2 C 0 km/h
557 07-09-2009 15:27:01 27.8 C 6.72 g/m*3 27.8 C 0 km/h
558 07-09-2009 15:39:02 27.5 C 6.88 g/m*3 27.5 C 0 km/h
559 07-09-2009 15:51:02 27.7 C 7.22 g/m*3 27.7 C 0 km/h
560 07-09-2009 16:03:02 28.7 C 6.22 g/m*3 28.7 C 0 km/h
561 07-09-2009 16:15:02 29.3 C 6.13 g/m*3 29.3 C 0 km/h
562 07-09-2009 16:27:02 28.8 C 6.25 g/m*3 28.8 C 0 km/h
563 07-09-2009 16:39:02 27.9 C 5.41 g/m*3 27.9 C 0 km/h
564 07-09-2009 16:51:02 29 C 6.89 g/m*3 29 C 0 km/h
565 07-09-2009 17:03:02 29.7 C 6.56 g/m*3 29.7 C 0 km/h
566 07-09-2009 17:15:02 30.3 C 6.47 g/m*3 30.3 C 0 km/h
567 07-09-2009 17:27:02 29.1 C 6.64 g/m*3 29.1 C 0 km/h
568 07-09-2009 17:39:02 29.4 C 6.75 g/m*3 29.4 C 0 km/h
569 07-09-2009 17:51:02 29.5 C 6.79 g/m*3 29.5 C 0 km/h
570 07-09-2009 18:03:02 29.1 C 6.64 g/m*3 29.1 C 0 km/h
571 07-09-2009 18:15:02 29.7 C 7.16 g/m*3 29.7 C 0 km/h
572 07-09-2009 18:27:02 29.8 C 6.9 g/m*3 29.8 C 0 km/h
573 07-09-2009 18:39:02 29.4 C 7.93 g/m*3 29.4 C 0 km/h
574 07-09-2009 18:51:02 28.9 C 8 g/m*3 28.9 C 0 km/h
575 07-09-2009 19:03:01 28.4 C 7.51 g/m*3 28.4 C 0 km/h
Sensor: Nr:Datum:Temp:Abs-Feuchte:Windchill:Wind:
Aussen-T/F 576 07-09-2009 19:15:02 27.4 C 8.16 g/m*3 27.4 C 0 km/h
577 07-09-2009 19:27:02 26.2 C 7.88 g/m*3 26.2 C 0 km/h
578 07-09-2009 19:39:02 24.7 C 7.92 g/m*3 24.7 C 0 km/h
579 07-09-2009 19:51:02 23.3 C 8.15 g/m*3 23.3 C 0 km/h
580 07-09-2009 20:03:03 22.7 C 8.28 g/m*3 22.7 C 0 km/h
581 07-09-2009 20:15:02 22 C 8.15 g/m*3 22 C 0 km/h
582 07-09-2009 20:27:02 21.7 C 8.39 g/m*3 21.7 C 0 km/h
583 07-09-2009 20:39:02 21.4 C 8.44 g/m*3 21.4 C 0 km/h
584 07-09-2009 20:51:02 21.2 C 8.52 g/m*3 21.2 C 0 km/h
585 07-09-2009 21:03:01 20.9 C 8.56 g/m*3 20.9 C 0 km/h
586 07-09-2009 21:15:02 20.7 C 8.46 g/m*3 20.7 C 0 km/h
587 07-09-2009 21:27:02 20.5 C 8.72 g/m*3 20.5 C 0 km/h
588 07-09-2009 21:39:01 20 C 8.81 g/m*3 20 C 0 km/h
589 07-09-2009 21:51:02 19.6 C 8.78 g/m*3 19.6 C 0 km/h
590 07-09-2009 22:03:01 19.5 C 8.73 g/m*3 19.5 C 0 km/h
591 07-09-2009 22:15:01 19 C 8.96 g/m*3 19 C 0 km/h
592 07-09-2009 22:27:01 18.6 C 9.07 g/m*3 18.6 C 0 km/h
593 07-09-2009 22:40:01 18.4 C 9.12 g/m*3 18.4 C 0 km/h
594 07-09-2009 22:52:01 18.2 C 9.01 g/m*3 18.2 C 0 km/h
595 07-09-2009 23:04:01 18 C 8.75 g/m*3 18 C 0 km/h
596 07-09-2009 23:16:01 17.9 C 8.86 g/m*3 17.9 C 0 km/h
597 07-09-2009 23:28:01 17.8 C 8.95 g/m*3 17.8 C 0 km/h
598 07-09-2009 23:40:01 17.4 C 8.89 g/m*3 17.4 C 0 km/h
599 07-09-2009 23:52:01 17 C 8.97 g/m*3 17 C 0 km/h

Legende:
   Min
   Max


Maximal/Minimal-Werte vom 03.09.2009 - 07.09.2009

Sensor Min Max Avg
Temp
(Aussen-T/F)
9.1 °C
06-09-2009  07:14:02
30.3 °C
07-09-2009  17:15:02
15.89 °C
Abs-Feuchte
(Aussen-T/F)
4.95 g/m*3
05-09-2009  15:25:03
11.76 g/m*3
04-09-2009  16:24:01
7.92 g/m*3
Windchill
(Aussen-T/F)
9.1 C
06-09-2009  07:14:02
30.3 C
07-09-2009  17:15:02
15.86 C

Die Daten stammen von einer Davis Vantage Pro 2 Wetter-Station und werden unter Linux mit der Software wview2wettercgi und aufbereitet. Alle Angaben erfolgen ohne Gewähr für ihre Vollständigkeit oder Richtigkeit.
Kontakt: Rainer Krienke krienke@uni-koblenz.de . Meine Webseiten an der Uni Koblenz oder privat.
Version: $Revision: 0.78 $